| time (UTC) | temp F | wind direction | speed knots | gust knots | rain 1hr in | rain 24hr in | rain mn in | humidity % | barometer mb |
| 20260508104736 | 41 | 141 | 1.7 | 1.7 | 0.00 | 0.00 | 0.00 | 99 | 1017.5 |
| 20260508104233 | 41 | 150 | 1.7 | 2.6 | 0.00 | 0.00 | 0.00 | 99 | 1017.5 |
| 20260508103730 | 41 | 154 | 1.7 | 2.6 | 0.00 | 0.00 | 0.00 | 99 | 1017.3 |
| 20260508103227 | 42 | 148 | 1.7 | 1.7 | 0.00 | 0.00 | 0.00 | 99 | 1017.4 |
| 20260508102724 | 42 | 156 | 1.7 | 1.7 | 0.00 | 0.00 | 0.00 | 99 | 1017.2 |
| 20260508102222 | 42 | 151 | 1.7 | 1.7 | 0.00 | 0.00 | 0.00 | 99 | 1017.3 |
| 20260508101719 | 42 | 141 | 1.7 | 1.7 | 0.00 | 0.00 | 0.00 | 99 | 1017.3 |
| 20260508101216 | 42 | 141 | 1.7 | 2.6 | 0.00 | 0.00 | 0.00 | 99 | 1017.0 |
| 20260508100714 | 43 | 148 | 1.7 | 1.7 | 0.00 | 0.00 | 0.00 | 99 | 1017.1 |
| 20260508100212 | 43 | 148 | 1.7 | 1.7 | 0.00 | 0.00 | 0.00 | 99 | 1017.0 |
| 20260508095708 | 43 | 148 | 1.7 | 1.7 | 0.00 | 0.00 | 0.00 | 99 | 1017.0 |
| 20260508095206 | 43 | 131 | 1.7 | 1.7 | 0.00 | 0.00 | 0.00 | 99 | 1016.8 |
| 20260508094702 | 43 | 151 | 1.7 | 2.6 | 0.00 | 0.00 | 0.00 | 99 | 1016.9 |
| 20260508094159 | 43 | 158 | 1.7 | 1.7 | 0.00 | 0.00 | 0.00 | 99 | 1016.9 |
| 20260508093656 | 44 | 152 | 1.7 | 2.6 | 0.00 | 0.00 | 0.00 | 99 | 1016.9 |
| 20260508093154 | 44 | 156 | 0.9 | 2.6 | 0.00 | 0.00 | 0.00 | 99 | 1016.7 |
| 20260508092651 | 44 | 145 | 1.7 | 2.6 | 0.00 | 0.00 | 0.00 | 99 | 1016.7 |
| 20260508092149 | 44 | 149 | 1.7 | 2.6 | 0.00 | 0.00 | 0.00 | 99 | 1016.4 |
| 20260508091646 | 44 | 140 | 1.7 | 2.6 | 0.00 | 0.00 | 0.00 | 99 | 1016.4 |
| 20260508091143 | 43 | 143 | 1.7 | 2.6 | 0.00 | 0.00 | 0.00 | 99 | 1016.4 |
| 20260508090641 | 43 | 154 | 1.7 | 1.7 | 0.00 | 0.00 | 0.00 | 99 | 1016.3 |
| 20260508090138 | 43 | 150 | 1.7 | 1.7 | 0.00 | 0.00 | 0.00 | 99 | 1016.4 |
| 20260508085634 | 43 | 150 | 1.7 | 1.7 | 0.00 | 0.00 | 0.00 | 99 | 1016.5 |
| 20260508085132 | 43 | 146 | 1.7 | 2.6 | 0.00 | 0.00 | 0.00 | 99 | 1016.0 |
| 20260508084628 | 42 | 136 | 1.7 | 2.6 | 0.00 | 0.00 | 0.00 | 99 | 1016.2 |
| 20260508084125 | 42 | 136 | 1.7 | 2.6 | 0.00 | 0.00 | 0.00 | 99 | 1016.2 |
| 20260508083622 | 42 | 150 | 1.7 | 1.7 | 0.00 | 0.00 | 0.00 | 99 | 1016.1 |
| 20260508083119 | 41 | 172 | 1.7 | 1.7 | 0.00 | 0.00 | 0.00 | 99 | 1016.1 |
| 20260508082615 | 41 | 149 | 1.7 | 2.6 | 0.00 | 0.00 | 0.00 | 99 | 1016.0 |
| 20260508082112 | 42 | 165 | 2.6 | 2.6 | 0.00 | 0.00 | 0.00 | 99 | 1015.9 |
| 20260508081610 | 42 | 152 | 1.7 | 2.6 | 0.00 | 0.00 | 0.00 | 99 | 1015.7 |
| 20260508081106 | 42 | 143 | 2.6 | 2.6 | 0.00 | 0.00 | 0.00 | 99 | 1015.6 |
| 20260508080604 | 42 | 144 | 1.7 | 2.6 | 0.00 | 0.00 | 0.00 | 99 | 1015.6 |
| 20260508075557 | 43 | 151 | 1.7 | 1.7 | 0.00 | 0.00 | 0.00 | 99 | 1015.7 |
| 20260508075055 | 43 | 156 | 1.7 | 1.7 | 0.00 | 0.00 | 0.00 | 99 | 1015.6 |
| 20260508074553 | 43 | 148 | 1.7 | 1.7 | 0.00 | 0.00 | 0.00 | 99 | 1015.7 |
| 20260508074049 | 43 | 139 | 1.7 | 1.7 | 0.00 | 0.00 | 0.00 | 99 | 1015.5 |
| 20260508073546 | 43 | 147 | 1.7 | 1.7 | 0.00 | 0.00 | 0.00 | 99 | 1015.6 |
| 20260508073044 | 43 | 145 | 1.7 | 1.7 | 0.00 | 0.00 | 0.00 | 99 | 1015.6 |
| 20260508072539 | 43 | 146 | 1.7 | 1.7 | 0.00 | 0.00 | 0.00 | 99 | 1015.6 |
| 20260508072037 | 43 | 135 | 1.7 | 1.7 | 0.00 | 0.00 | 0.00 | 99 | 1015.5 |
| 20260508071535 | 43 | 139 | 0.9 | 1.7 | 0.00 | 0.00 | 0.00 | 99 | 1015.4 |
| 20260508071032 | 43 | 134 | 1.7 | 1.7 | 0.00 | 0.00 | 0.00 | 99 | 1015.3 |
| 20260508070530 | 43 | 139 | 1.7 | 2.6 | 0.00 | 0.00 | 0.00 | 99 | 1015.4 |
| 20260508070028 | 44 | 145 | 1.7 | 1.7 | 0.00 | 0.00 | 0.00 | 99 | 1015.2 |
| 20260508065525 | 44 | 156 | 1.7 | 2.6 | 0.00 | 0.00 | 0.00 | 99 | 1015.2 |
| 20260508065023 | 44 | 144 | 1.7 | 1.7 | 0.00 | 0.00 | 0.00 | 99 | 1015.3 |
| 20260508064520 | 44 | 149 | 2.6 | 2.6 | 0.00 | 0.00 | 0.00 | 99 | 1015.4 |
| 20260508064018 | 44 | 153 | 1.7 | 1.7 | 0.00 | 0.00 | 0.00 | 99 | 1015.2 |
| 20260508063515 | 44 | 152 | 1.7 | 2.6 | 0.00 | 0.00 | 0.00 | 99 | 1015.3 |
| 20260508063013 | 44 | 159 | 1.7 | 1.7 | 0.00 | 0.00 | 0.00 | 99 | 1015.2 |
| 20260508062510 | 45 | 154 | 1.7 | 1.7 | 0.00 | 0.00 | 0.00 | 99 | 1015.0 |
| 20260508062007 | 45 | 156 | 1.7 | 1.7 | 0.00 | 0.00 | 0.00 | 99 | 1015.1 |
| 20260508061505 | 45 | 148 | 1.7 | 1.7 | 0.00 | 0.00 | 0.00 | 99 | 1015.0 |
| 20260508061002 | 46 | 151 | 1.7 | 1.7 | 0.00 | 0.00 | 0.00 | 99 | 1015.0 |
| 20260508060459 | 46 | 161 | 1.7 | 1.7 | 0.00 | 0.00 | 0.00 | 99 | 1014.8 |
| 20260508055954 | 46 | 135 | 1.7 | 1.7 | 0.00 | 0.00 | 0.00 | 99 | 1015.0 |
| 20260508055451 | 46 | 136 | 1.7 | 1.7 | 0.00 | 0.00 | 0.00 | 99 | 1015.0 |
| 20260508054948 | 46 | 145 | 1.7 | 1.7 | 0.00 | 0.00 | 0.00 | 99 | 1014.9 |
| 20260508054445 | 46 | 161 | 1.7 | 1.7 | 0.00 | 0.00 | 0.00 | 99 | 1014.9 |
| 20260508053942 | 46 | 146 | 1.7 | 1.7 | 0.00 | 0.00 | 0.00 | 99 | 1014.7 |
| 20260508053439 | 46 | 152 | 1.7 | 1.7 | 0.00 | 0.00 | 0.00 | 99 | 1014.6 |
| 20260508052937 | 46 | 145 | 1.7 | 1.7 | 0.00 | 0.00 | 0.00 | 99 | 1014.9 |
| 20260508052434 | 46 | 138 | 0.9 | 1.7 | 0.00 | 0.00 | 0.00 | 99 | 1014.7 |
| 20260508051930 | 46 | 149 | 1.7 | 1.7 | 0.00 | 0.00 | 0.00 | 99 | 1014.5 |
| 20260508051426 | 46 | 151 | 1.7 | 1.7 | 0.00 | 0.00 | 0.00 | 99 | 1014.9 |
| 20260508050922 | 47 | 147 | 1.7 | 2.6 | 0.00 | 0.00 | 0.00 | 99 | 1014.8 |
| 20260508050419 | 47 | 144 | 1.7 | 1.7 | 0.00 | 0.00 | 0.00 | 99 | 1014.6 |
| 20260508045915 | 47 | 141 | 1.7 | 1.7 | 0.00 | 0.00 | 0.00 | 99 | 1014.9 |
| 20260508045413 | 47 | 138 | 0.9 | 1.7 | 0.00 | 0.00 | 0.00 | 99 | 1014.6 |
| 20260508044910 | 47 | 133 | 0.9 | 1.7 | 0.00 | 0.00 | 0.00 | 99 | 1014.7 |
| 20260508044407 | 47 | 139 | 1.7 | 1.7 | 0.00 | 0.00 | 0.00 | 99 | 1014.4 |
| 20260508043902 | 48 | 143 | 1.7 | 1.7 | 0.00 | 0.00 | 0.00 | 99 | 1014.3 |
| 20260508043400 | 48 | 143 | 0.9 | 1.7 | 0.00 | 0.00 | 0.00 | 99 | 1014.3 |
| 20260508042856 | 48 | 155 | 1.7 | 1.7 | 0.00 | 0.00 | 0.00 | 98 | 1014.4 |
| 20260508042354 | 48 | 153 | 1.7 | 1.7 | 0.00 | 0.00 | 0.00 | 99 | 1014.6 |
| 20260508041851 | 48 | 154 | 1.7 | 1.7 | 0.00 | 0.00 | 0.00 | 99 | 1014.6 |
| 20260508041347 | 48 | 148 | 1.7 | 1.7 | 0.00 | 0.00 | 0.00 | 98 | 1014.3 |
| 20260508040844 | 48 | 146 | 1.7 | 1.7 | 0.00 | 0.00 | 0.00 | 98 | 1014.1 |
| 20260508040341 | 49 | 145 | 1.7 | 1.7 | 0.00 | 0.00 | 0.00 | 99 | 1014.5 |
| 20260508035839 | 49 | 154 | 1.7 | 1.7 | 0.00 | 0.08 | 0.08 | 99 | 1014.3 |
| 20260508035336 | 49 | 140 | 0.9 | 1.7 | 0.00 | 0.08 | 0.08 | 99 | 1014.3 |
| 20260508034833 | 49 | 137 | 1.7 | 1.7 | 0.00 | 0.08 | 0.08 | 99 | 1014.3 |
| 20260508034330 | 49 | 135 | 1.7 | 1.7 | 0.00 | 0.08 | 0.08 | 98 | 1014.3 |
| 20260508033826 | 49 | 154 | 1.7 | 1.7 | 0.00 | 0.08 | 0.08 | 98 | 1014.1 |
| 20260508033325 | 50 | 137 | 1.7 | 1.7 | 0.00 | 0.08 | 0.08 | 98 | 1014.1 |
| 20260508032822 | 50 | 139 | 1.7 | 1.7 | 0.00 | 0.08 | 0.08 | 98 | 1014.2 |
| 20260508032319 | 50 | 150 | 1.7 | 2.6 | 0.00 | 0.08 | 0.08 | 99 | 1014.2 |
| 20260508031816 | 49 | 165 | 0.9 | 1.7 | 0.00 | 0.08 | 0.08 | 98 | 1014.3 |
| 20260508031313 | 49 | 152 | 1.7 | 1.7 | 0.00 | 0.08 | 0.08 | 98 | 1014.1 |
| 20260508030809 | 49 | 137 | 1.7 | 1.7 | 0.00 | 0.08 | 0.08 | 98 | 1014.3 |
| 20260508030306 | 49 | 145 | 1.7 | 1.7 | 0.00 | 0.08 | 0.08 | 98 | 1014.1 |
| 20260508025802 | 49 | 150 | 1.7 | 2.6 | 0.00 | 0.08 | 0.08 | 98 | 1014.3 |
| 20260508025300 | 49 | 149 | 1.7 | 1.7 | 0.00 | 0.08 | 0.08 | 98 | 1014.0 |
| 20260508024756 | 50 | 148 | 1.7 | 2.6 | 0.00 | 0.08 | 0.08 | 98 | 1013.8 |
| 20260508024253 | 50 | 143 | 1.7 | 1.7 | 0.00 | 0.08 | 0.08 | 98 | 1013.9 |
| 20260508023750 | 50 | 150 | 1.7 | 2.6 | 0.00 | 0.08 | 0.08 | 98 | 1013.8 |
| 20260508023247 | 50 | 155 | 1.7 | 2.6 | 0.00 | 0.08 | 0.08 | 98 | 1013.9 |
| 20260508022743 | 50 | 142 | 1.7 | 1.7 | 0.00 | 0.08 | 0.08 | 98 | 1014.0 |
| 20260508022240 | 50 | 146 | 1.7 | 1.7 | 0.00 | 0.08 | 0.08 | 98 | 1013.7 |
| 20260508021737 | 50 | 146 | 1.7 | 2.6 | 0.00 | 0.08 | 0.08 | 98 | 1013.8 |
| 20260508021232 | 50 | 140 | 1.7 | 2.6 | 0.00 | 0.08 | 0.08 | 98 | 1013.9 |
| 20260508020729 | 50 | 142 | 1.7 | 2.6 | 0.00 | 0.08 | 0.08 | 98 | 1013.8 |
| 20260508020227 | 50 | 147 | 1.7 | 1.7 | 0.00 | 0.08 | 0.08 | 98 | 1013.7 |
| 20260508015724 | 50 | 151 | 1.7 | 2.6 | 0.00 | 0.08 | 0.08 | 97 | 1013.5 |
| 20260508015221 | 50 | 151 | 1.7 | 1.7 | 0.00 | 0.08 | 0.08 | 97 | 1013.5 |
| 20260508014717 | 50 | 151 | 1.7 | 2.6 | 0.00 | 0.08 | 0.08 | 97 | 1013.5 |
| 20260508014214 | 50 | 148 | 1.7 | 1.7 | 0.00 | 0.08 | 0.08 | 97 | 1013.4 |
| 20260508013710 | 50 | 141 | 1.7 | 1.7 | 0.00 | 0.08 | 0.08 | 97 | 1013.3 |
| 20260508013206 | 50 | 149 | 1.7 | 1.7 | 0.00 | 0.08 | 0.08 | 97 | 1013.5 |
| 20260508012705 | 50 | 148 | 1.7 | 1.7 | 0.00 | 0.08 | 0.08 | 97 | 1013.5 |
| 20260508012201 | 50 | 150 | 1.7 | 1.7 | 0.00 | 0.08 | 0.08 | 97 | 1013.8 |
| 20260508011659 | 51 | 145 | 1.7 | 1.7 | 0.00 | 0.08 | 0.08 | 97 | 1013.4 |
| 20260508011156 | 51 | 149 | 1.7 | 1.7 | 0.00 | 0.08 | 0.08 | 97 | 1013.5 |
| 20260508010653 | 51 | 145 | 1.7 | 1.7 | 0.00 | 0.08 | 0.08 | 97 | 1013.5 |
| 20260508010151 | 51 | 153 | 1.7 | 2.6 | 0.00 | 0.08 | 0.08 | 97 | 1013.6 |
| 20260508005647 | 51 | 145 | 1.7 | 1.7 | 0.00 | 0.08 | 0.08 | 96 | 1013.5 |
| 20260508005139 | 51 | 149 | 1.7 | 1.7 | 0.00 | 0.08 | 0.08 | 96 | 1013.3 |
| 20260508004634 | 51 | 153 | 1.7 | 2.6 | 0.00 | 0.08 | 0.08 | 96 | 1013.3 |
| 20260508004131 | 52 | 138 | 1.7 | 1.7 | 0.00 | 0.08 | 0.08 | 96 | 1013.4 |
| 20260508003627 | 52 | 139 | 1.7 | 1.7 | 0.00 | 0.08 | 0.08 | 96 | 1013.3 |
| 20260508003125 | 52 | 153 | 1.7 | 1.7 | 0.00 | 0.08 | 0.08 | 96 | 1013.2 |
| 20260508002621 | 52 | 149 | 1.7 | 1.7 | 0.00 | 0.08 | 0.08 | 96 | 1013.1 |
| 20260508002120 | 52 | 129 | 1.7 | 1.7 | 0.00 | 0.08 | 0.08 | 96 | 1012.9 |
| 20260508001614 | 52 | 146 | 1.7 | 1.7 | 0.00 | 0.08 | 0.08 | 95 | 1013.2 |
| 20260508001111 | 52 | 142 | 1.7 | 1.7 | 0.00 | 0.08 | 0.08 | 95 | 1013.1 |
| 20260508000606 | 53 | 146 | 1.7 | 1.7 | 0.00 | 0.08 | 0.08 | 95 | 1013.2 |
| 20260508000104 | 53 | 150 | 1.7 | 1.7 | 0.00 | 0.08 | 0.08 | 94 | 1012.9 |
| 20260507235600 | 53 | 146 | 1.7 | 1.7 | 0.00 | 0.08 | 0.08 | 94 | 1012.8 |
| 20260507235058 | 53 | 146 | 1.7 | 1.7 | 0.00 | 0.08 | 0.08 | 94 | 1012.5 |
| 20260507234554 | 53 | 155 | 1.7 | 1.7 | 0.00 | 0.08 | 0.08 | 94 | 1012.4 |
| 20260507234051 | 53 | 149 | 1.7 | 1.7 | 0.00 | 0.08 | 0.08 | 94 | 1012.5 |
| 20260507233547 | 53 | 151 | 1.7 | 1.7 | 0.00 | 0.08 | 0.08 | 94 | 1012.4 |
| 20260507233046 | 53 | 151 | 1.7 | 1.7 | 0.00 | 0.08 | 0.08 | 94 | 1012.4 |
| 20260507232536 | 53 | 138 | 1.7 | 1.7 | 0.00 | 0.08 | 0.08 | 93 | 1012.5 |
| 20260507232034 | 53 | 152 | 1.7 | 1.7 | 0.00 | 0.08 | 0.08 | 93 | 1012.4 |
| 20260507231530 | 53 | 140 | 1.7 | 1.7 | 0.00 | 0.08 | 0.08 | 93 | 1012.5 |
| 20260507231028 | 53 | 137 | 1.7 | 1.7 | 0.00 | 0.08 | 0.08 | 93 | 1012.1 |
| 20260507230524 | 54 | 130 | 1.7 | 1.7 | 0.00 | 0.08 | 0.08 | 93 | 1012.1 |
| 20260507230021 | 54 | 148 | 1.7 | 1.7 | 0.00 | 0.08 | 0.08 | 92 | 1011.9 |
| 20260507225516 | 54 | 142 | 1.7 | 1.7 | 0.00 | 0.08 | 0.08 | 92 | 1012.2 |
| 20260507225012 | 54 | 143 | 1.7 | 1.7 | 0.00 | 0.08 | 0.08 | 92 | 1012.0 |
| 20260507224508 | 54 | 140 | 1.7 | 2.6 | 0.00 | 0.08 | 0.08 | 92 | 1012.1 |
| 20260507224005 | 54 | 144 | 1.7 | 1.7 | 0.00 | 0.08 | 0.08 | 92 | 1012.2 |
| 20260507223500 | 54 | 140 | 1.7 | 1.7 | 0.00 | 0.08 | 0.08 | 90 | 1012.0 |
| 20260507222958 | 54 | 141 | 1.7 | 1.7 | 0.00 | 0.08 | 0.08 | 90 | 1012.0 |
| 20260507222455 | 54 | 151 | 1.7 | 1.7 | 0.00 | 0.08 | 0.08 | 91 | 1012.1 |
| 20260507221951 | 54 | 145 | 1.7 | 2.6 | 0.00 | 0.08 | 0.08 | 92 | 1012.1 |
| 20260507221448 | 53 | 145 | 1.7 | 1.7 | 0.00 | 0.08 | 0.08 | 90 | 1011.9 |
| 20260507220945 | 54 | 149 | 0.9 | 1.7 | 0.00 | 0.08 | 0.08 | 91 | 1011.9 |
| 20260507220443 | 54 | 124 | 1.7 | 1.7 | 0.00 | 0.08 | 0.08 | 92 | 1011.9 |
| 20260507215939 | 54 | 159 | 0.9 | 1.7 | 0.00 | 0.08 | 0.08 | 92 | 1011.7 |
| 20260507215435 | 54 | 157 | 1.7 | 2.6 | 0.00 | 0.08 | 0.08 | 92 | 1011.8 |
| 20260507214932 | 54 | 132 | 1.7 | 2.6 | 0.00 | 0.08 | 0.08 | 92 | 1011.8 |
| 20260507214430 | 54 | 141 | 1.7 | 1.7 | 0.00 | 0.08 | 0.08 | 92 | 1011.7 |
| 20260507213926 | 54 | 147 | 1.7 | 1.7 | 0.00 | 0.08 | 0.08 | 93 | 1011.8 |
| 20260507213422 | 54 | 141 | 1.7 | 1.7 | 0.00 | 0.08 | 0.08 | 93 | 1011.9 |
| 20260507212919 | 54 | 139 | 1.7 | 1.7 | 0.00 | 0.08 | 0.08 | 93 | 1011.8 |
| 20260507212415 | 54 | 137 | 1.7 | 1.7 | 0.00 | 0.08 | 0.08 | 93 | 1011.5 |
| 20260507211912 | 54 | 129 | 1.7 | 1.7 | 0.00 | 0.08 | 0.08 | 93 | 1011.2 |
| 20260507211409 | 54 | 138 | 1.7 | 1.7 | 0.00 | 0.08 | 0.08 | 93 | 1011.5 |
| 20260507210906 | 54 | 141 | 1.7 | 1.7 | 0.00 | 0.08 | 0.08 | 94 | 1011.6 |
| 20260507210403 | 53 | 135 | 1.7 | 2.6 | 0.00 | 0.08 | 0.08 | 93 | 1011.6 |
| 20260507205859 | 53 | 121 | 1.7 | 1.7 | 0.02 | 0.08 | 0.08 | 92 | 1011.6 |
| 20260507205356 | 53 | 122 | 0.9 | 1.7 | 0.02 | 0.08 | 0.08 | 94 | 1011.6 |
| 20260507204852 | 54 | 128 | 2.6 | 2.6 | 0.02 | 0.07 | 0.07 | 94 | 1011.9 |
| 20260507204349 | 53 | 131 | 0.9 | 1.7 | 0.09 | 0.07 | 0.07 | 93 | 1011.9 |
| 20260507203847 | 54 | 146 | 0.9 | 1.7 | 0.14 | 0.07 | 0.07 | 92 | 1011.8 |
| 20260507203345 | 54 | 145 | 1.7 | 2.6 | 0.09 | 0.06 | 0.06 | 91 | 1012.4 |
| 20260507202840 | 54 | 149 | 1.7 | 1.7 | 0.07 | 0.05 | 0.05 | 90 | 1011.7 |
| 20260507202337 | 54 | 134 | 1.7 | 2.6 | 0.05 | 0.04 | 0.04 | 89 | 1011.7 |
| 20260507201833 | 55 | 131 | 2.6 | 2.6 | 0.02 | 0.04 | 0.04 | 87 | 1011.9 |
| 20260507201328 | 55 | 149 | 1.7 | 2.6 | 0.00 | 0.03 | 0.03 | 84 | 1011.8 |
| 20260507200825 | 56 | 146 | 1.7 | 1.7 | 0.02 | 0.03 | 0.03 | 85 | 1011.9 |
| 20260507200321 | 56 | 151 | 1.7 | 2.6 | 0.02 | 0.03 | 0.03 | 84 | 1011.9 |
| 20260507195817 | 56 | 133 | 1.7 | 1.7 | 0.02 | 0.03 | 0.03 | 83 | 1012.1 |
| 20260507195315 | 56 | 187 | 1.7 | 1.7 | 0.00 | 0.02 | 0.02 | 82 | 1012.3 |
| 20260507194812 | 56 | 128 | 1.7 | 1.7 | 0.00 | 0.02 | 0.02 | 79 | 1012.5 |
| 20260507194308 | 56 | 140 | 1.7 | 1.7 | 0.00 | 0.02 | 0.02 | 79 | 1012.3 |
| 20260507193804 | 56 | 147 | 1.7 | 1.7 | 0.00 | 0.02 | 0.02 | 80 | 1012.0 |
| 20260507193301 | 56 | 140 | 1.7 | 2.6 | 0.00 | 0.02 | 0.02 | 76 | 1012.2 |
| 20260507192757 | 57 | 157 | 1.7 | 2.6 | 0.00 | 0.02 | 0.02 | 77 | 1012.3 |
| 20260507192254 | 57 | 136 | 1.7 | 3.5 | 0.00 | 0.02 | 0.02 | 74 | 1012.1 |
| 20260507191750 | 57 | 152 | 1.7 | 2.6 | 0.00 | 0.02 | 0.02 | 73 | 1012.1 |
| 20260507191247 | 57 | 154 | 1.7 | 2.6 | 0.00 | 0.02 | 0.02 | 71 | 1012.5 |
| 20260507190744 | 57 | 143 | 0.9 | 1.7 | 0.00 | 0.02 | 0.02 | 72 | 1012.5 |
| 20260507190243 | 57 | 154 | 2.6 | 2.6 | 0.00 | 0.02 | 0.02 | 71 | 1012.1 |
| 20260507185741 | 57 | 208 | 2.6 | 2.6 | 0.00 | 0.02 | 0.02 | 71 | 1012.4 |
| 20260507185237 | 57 | 83 | 0.9 | 2.6 | 0.00 | 0.02 | 0.02 | 72 | 1012.2 |
| 20260507184735 | 57 | 169 | 1.7 | 2.6 | 0.00 | 0.02 | 0.02 | 71 | 1012.4 |
| 20260507184232 | 57 | 77 | 0.0 | 2.6 | 0.00 | 0.02 | 0.02 | 71 | 1012.5 |
| 20260507183723 | 57 | 140 | 0.9 | 2.6 | 0.00 | 0.02 | 0.02 | 72 | 1012.4 |
| 20260507183220 | 57 | 146 | 0.9 | 2.6 | 0.00 | 0.02 | 0.02 | 72 | 1012.3 |
| 20260507182718 | 57 | 216 | 0.9 | 2.6 | 0.00 | 0.02 | 0.02 | 71 | 1012.4 |
| 20260507182212 | 57 | 75 | 0.9 | 3.5 | 0.00 | 0.02 | 0.02 | 72 | 1012.4 |
| 20260507181710 | 57 | 104 | 2.6 | 2.6 | 0.00 | 0.02 | 0.02 | 73 | 1012.6 |
| 20260507181206 | 57 | 175 | 0.9 | 2.6 | 0.00 | 0.02 | 0.02 | 72 | 1012.5 |
| 20260507180702 | 57 | 141 | 0.0 | 2.6 | 0.00 | 0.02 | 0.02 | 72 | 1012.4 |
| 20260507180200 | 57 | 141 | 1.7 | 2.6 | 0.00 | 0.02 | 0.02 | 73 | 1012.3 |
| 20260507175655 | 57 | 148 | 1.7 | 2.6 | 0.00 | 0.02 | 0.02 | 73 | 1012.5 |
| 20260507175153 | 57 | 238 | 2.6 | 2.6 | 0.00 | 0.02 | 0.02 | 72 | 1012.4 |
| 20260507174650 | 57 | 113 | 1.7 | 1.7 | 0.00 | 0.02 | 0.02 | 73 | 1012.8 |
| 20260507174148 | 57 | 163 | 1.7 | 3.5 | 0.00 | 0.02 | 0.02 | 71 | 1012.6 |
| 20260507173645 | 57 | 200 | 0.9 | 1.7 | 0.00 | 0.02 | 0.02 | 71 | 1012.5 |
| 20260507173141 | 57 | 150 | 1.7 | 2.6 | 0.00 | 0.02 | 0.02 | 70 | 1013.0 |
| 20260507172637 | 57 | 125 | 1.7 | 1.7 | 0.00 | 0.02 | 0.02 | 71 | 1012.9 |
| 20260507172136 | 57 | 103 | 1.7 | 4.3 | 0.00 | 0.02 | 0.02 | 70 | 1012.8 |
| 20260507171635 | 57 | 155 | 1.7 | 2.6 | 0.00 | 0.02 | 0.02 | 72 | 1012.6 |
| 20260507171133 | 57 | 163 | 2.6 | 2.6 | 0.00 | 0.02 | 0.02 | 72 | 1013.0 |
| 20260507170630 | 56 | 200 | 2.6 | 3.5 | 0.00 | 0.02 | 0.02 | 74 | 1013.0 |
| 20260507170127 | 56 | 175 | 0.9 | 2.6 | 0.00 | 0.02 | 0.02 | 78 | 1013.2 |
| 20260507165622 | 56 | 97 | 1.7 | 2.6 | 0.00 | 0.02 | 0.02 | 79 | 1013.2 |
| 20260507165119 | 56 | 111 | 1.7 | 2.6 | 0.00 | 0.02 | 0.02 | 79 | 1013.3 |
| 20260507164615 | 56 | 137 | 0.9 | 2.6 | 0.00 | 0.02 | 0.02 | 79 | 1013.4 |
| 20260507164112 | 56 | 207 | 0.9 | 3.5 | 0.00 | 0.02 | 0.02 | 77 | 1013.4 |
| 20260507163609 | 56 | 165 | 1.7 | 3.5 | 0.00 | 0.02 | 0.02 | 79 | 1013.5 |
| 20260507163107 | 56 | 139 | 0.9 | 2.6 | 0.00 | 0.02 | 0.02 | 81 | 1013.5 |
| 20260507162602 | 56 | 117 | 2.6 | 2.6 | 0.00 | 0.02 | 0.02 | 84 | 1013.6 |
| 20260507162059 | 55 | 168 | 4.3 | 4.3 | 0.00 | 0.02 | 0.02 | 85 | 1013.4 |
| 20260507161555 | 55 | 192 | 3.5 | 3.5 | 0.00 | 0.02 | 0.02 | 83 | 1013.4 |
| 20260507161052 | 55 | 132 | 0.9 | 5.2 | 0.00 | 0.02 | 0.02 | 85 | 1013.8 |
| 20260507160548 | 55 | 167 | 1.7 | 3.5 | 0.00 | 0.02 | 0.02 | 87 | 1013.6 |
| 20260507160044 | 55 | 178 | 3.5 | 4.3 | 0.00 | 0.02 | 0.02 | 88 | 1013.8 |
| 20260507155540 | 55 | 216 | 2.6 | 3.5 | 0.00 | 0.02 | 0.02 | 88 | 1013.9 |
| 20260507155037 | 55 | 171 | 2.6 | 4.3 | 0.00 | 0.02 | 0.02 | 88 | 1013.8 |
| 20260507154534 | 55 | 138 | 1.7 | 1.7 | 0.00 | 0.02 | 0.02 | 87 | 1013.7 |
| 20260507154026 | 55 | 202 | 2.6 | 3.5 | 0.02 | 0.02 | 0.02 | 87 | 1013.5 |
| 20260507153522 | 56 | 134 | 1.7 | 3.5 | 0.05 | 0.02 | 0.02 | 85 | 1013.8 |
| 20260507153018 | 56 | 179 | 1.7 | 3.5 | 0.02 | 0.02 | 0.02 | 83 | 1013.7 |
| 20260507152513 | 56 | 142 | 1.7 | 4.3 | 0.00 | 0.02 | 0.02 | 80 | 1013.9 |
| 20260507152010 | 56 | 226 | 0.0 | 6.1 | 0.00 | 0.02 | 0.02 | 79 | 1013.8 |
| 20260507151507 | 56 | 140 | 1.7 | 2.6 | 0.00 | 0.02 | 0.02 | 80 | 1013.7 |
| 20260507151004 | 56 | 131 | 2.6 | 2.6 | 0.00 | 0.02 | 0.02 | 80 | 1013.3 |
| 20260507150501 | 56 | 219 | 1.7 | 5.2 | 0.00 | 0.02 | 0.02 | 79 | 1013.6 |
| 20260507145957 | 57 | 156 | 2.6 | 3.5 | 0.00 | 0.02 | 0.02 | 78 | 1013.5 |
| 20260507145453 | 57 | 171 | 1.7 | 4.3 | 0.00 | 0.02 | 0.02 | 76 | 1013.5 |
| 20260507144950 | 57 | 147 | 0.0 | 3.5 | 0.00 | 0.02 | 0.02 | 76 | 1013.9 |
| 20260507144447 | 57 | 147 | 1.7 | 2.6 | 0.00 | 0.02 | 0.02 | 76 | 1013.6 |
| 20260507143944 | 57 | 148 | 1.7 | 5.2 | 0.00 | 0.02 | 0.02 | 77 | 1013.4 |
| 20260507143442 | 57 | 119 | 0.0 | 3.5 | 0.00 | 0.02 | 0.02 | 77 | 1013.1 |
| 20260507142938 | 57 | 142 | 1.7 | 2.6 | 0.00 | 0.02 | 0.02 | 78 | 1013.6 |
| 20260507142434 | 57 | 150 | 1.7 | 1.7 | 0.00 | 0.02 | 0.02 | 80 | 1013.7 |
| 20260507141931 | 57 | 140 | 1.7 | 1.7 | 0.00 | 0.02 | 0.02 | 81 | 1013.7 |
| 20260507141427 | 57 | 191 | 0.9 | 3.5 | 0.00 | 0.02 | 0.02 | 80 | 1013.9 |
| 20260507140924 | 58 | 164 | 1.7 | 4.3 | 0.00 | 0.02 | 0.02 | 80 | 1013.7 |
| 20260507140420 | 58 | 170 | 2.6 | 3.5 | 0.00 | 0.02 | 0.02 | 79 | 1013.9 |
| 20260507135919 | 58 | 158 | 1.7 | 2.6 | 0.00 | 0.02 | 0.02 | 79 | 1013.7 |
| 20260507135415 | 58 | 159 | 3.5 | 5.2 | 0.00 | 0.02 | 0.02 | 79 | 1013.9 |
| 20260507134912 | 58 | 197 | 0.0 | 4.3 | 0.00 | 0.02 | 0.02 | 80 | 1013.8 |
| 20260507134408 | 58 | 174 | 1.7 | 3.5 | 0.00 | 0.02 | 0.02 | 80 | 1014.0 |
| 20260507133904 | 58 | 162 | 0.9 | 5.2 | 0.00 | 0.02 | 0.02 | 81 | 1013.8 |
| 20260507133400 | 58 | 205 | 1.7 | 5.2 | 0.00 | 0.02 | 0.02 | 81 | 1013.6 |
| 20260507132859 | 58 | 162 | 1.7 | 3.5 | 0.00 | 0.02 | 0.02 | 83 | 1013.7 |
| 20260507132355 | 58 | 166 | 2.6 | 4.3 | 0.00 | 0.02 | 0.02 | 83 | 1013.3 |
| 20260507131852 | 58 | 163 | 1.7 | 3.5 | 0.00 | 0.02 | 0.02 | 84 | 1013.6 |
| 20260507131349 | 57 | 156 | 2.6 | 2.6 | 0.00 | 0.02 | 0.02 | 83 | 1013.3 |
| 20260507130846 | 58 | 209 | 0.9 | 5.2 | 0.00 | 0.02 | 0.02 | 83 | 1013.6 |
| 20260507130343 | 58 | 146 | 1.7 | 4.3 | 0.00 | 0.02 | 0.02 | 83 | 1013.6 |
| 20260507125842 | 58 | 150 | 1.7 | 1.7 | 0.00 | 0.02 | 0.02 | 83 | 1013.4 |
| 20260507125339 | 58 | 214 | 2.6 | 4.3 | 0.00 | 0.02 | 0.02 | 81 | 1013.8 |
| 20260507124837 | 58 | 152 | 2.6 | 2.6 | 0.00 | 0.02 | 0.02 | 82 | 1013.6 |
| 20260507124332 | 58 | 165 | 1.7 | 6.1 | 0.00 | 0.02 | 0.02 | 83 | 1013.6 |
| 20260507123831 | 57 | 143 | 0.9 | 4.3 | 0.00 | 0.02 | 0.02 | 82 | 1013.8 |
| 20260507123328 | 57 | 169 | 0.9 | 3.5 | 0.00 | 0.02 | 0.02 | 83 | 1013.5 |
| 20260507122824 | 57 | 136 | 2.6 | 3.5 | 0.00 | 0.02 | 0.02 | 83 | 1013.7 |
| 20260507122319 | 57 | 176 | 3.5 | 3.5 | 0.00 | 0.02 | 0.02 | 83 | 1013.7 |
| 20260507121816 | 57 | 179 | 2.6 | 3.5 | 0.00 | 0.02 | 0.02 | 83 | 1013.6 |
| 20260507121312 | 57 | 172 | 4.3 | 4.3 | 0.00 | 0.02 | 0.02 | 83 | 1013.5 |
| 20260507120809 | 57 | 185 | 3.5 | 5.2 | 0.00 | 0.02 | 0.02 | 83 | 1013.6 |
| 20260507120305 | 57 | 191 | 1.7 | 2.6 | 0.00 | 0.02 | 0.02 | 83 | 1013.3 |
| 20260507115801 | 57 | 155 | 1.7 | 2.6 | 0.00 | 0.02 | 0.02 | 83 | 1013.2 |
| 20260507115256 | 57 | 163 | 2.6 | 2.6 | 0.00 | 0.02 | 0.02 | 83 | 1013.8 |
| 20260507114753 | 57 | 148 | 0.9 | 2.6 | 0.00 | 0.02 | 0.02 | 82 | 1013.6 |
| 20260507114250 | 57 | 215 | 1.7 | 1.7 | 0.00 | 0.02 | 0.02 | 82 | 1013.8 |
| 20260507113748 | 57 | 229 | 2.6 | 2.6 | 0.00 | 0.02 | 0.02 | 82 | 1013.4 |
| 20260507113244 | 57 | 153 | 1.7 | 1.7 | 0.00 | 0.02 | 0.02 | 82 | 1013.8 |
| 20260507112742 | 57 | 200 | 1.7 | 3.5 | 0.00 | 0.02 | 0.02 | 82 | 1013.4 |
| 20260507112238 | 57 | 175 | 1.7 | 2.6 | 0.00 | 0.02 | 0.02 | 82 | 1013.3 |
| 20260507111737 | 57 | 133 | 1.7 | 3.5 | 0.00 | 0.02 | 0.02 | 81 | 1012.9 |
| 20260507111233 | 57 | 166 | 1.7 | 2.6 | 0.00 | 0.02 | 0.02 | 81 | 1012.8 |
| 20260507110729 | 57 | 169 | 1.7 | 2.6 | 0.00 | 0.02 | 0.02 | 81 | 1013.0 |
| 20260507110226 | 57 | 178 | 1.7 | 2.6 | 0.00 | 0.02 | 0.02 | 81 | 1013.1 |
| 20260507105722 | 57 | 146 | 0.9 | 5.2 | 0.00 | 0.02 | 0.02 | 80 | 1013.2 |
| 20260507105219 | 57 | 170 | 1.7 | 4.3 | 0.00 | 0.02 | 0.02 | 81 | 1012.9 |